Time,TemperatureF,DewpointF,PressureIn,WindDirection,WindDirectionDegrees,WindSpeedMPH,WindSpeedGustMPH,Humidity,HourlyPrecipIn,Conditions,Clouds,dailyrainin,SoftwareType,DateUTC
2013-03-28 00:00:00,39.9,30.6,30.03,NW,319,7.0,11.0,69,0.00,,CLR,0.00,VWS V14.00,2013-03-28 04:00:00,
2013-03-28 00:01:00,39.9,30.6,30.03,NW,319,7.0,11.0,69,0.00,,FEW060,0.00,VWS V14.00,2013-03-28 04:01:00,
2013-03-28 00:02:00,39.8,30.5,30.02,NW,304,3.0,7.0,69,0.00,,FEW060,0.00,VWS V14.00,2013-03-28 04:02:00,
2013-03-28 00:03:00,39.8,30.5,30.02,WNW,297,5.0,7.0,69,0.00,,FEW060,0.00,VWS V14.00,2013-03-28 04:03:00,
2013-03-28 00:08:00,39.7,30.4,30.03,NW,314,2.0,7.0,69,0.00,,FEW060,0.00,VWS V14.00,2013-03-28 04:08:00,
2013-03-28 00:13:00,39.6,30.6,30.02,NW,324,4.0,10.0,70,0.00,,FEW060,0.00,VWS V14.00,2013-03-28 04:13:00,
2013-03-28 00:18:00,39.5,30.5,30.03,NW,314,2.0,10.0,70,0.00,,FEW060,0.00,VWS V14.00,2013-03-28 04:18:00,
2013-03-28 00:24:00,39.3,30.4,30.03,NW,310,1.0,10.0,70,0.00,,FEW060,0.00,VWS V14.00,2013-03-28 04:24:00,
2013-03-28 00:29:00,39.2,30.6,30.03,NNW,327,1.0,10.0,71,0.00,,FEW060,0.00,VWS V14.00,2013-03-28 04:29:00,
2013-03-28 00:30:00,39.2,30.6,30.03,NW,326,2.0,10.0,71,0.00,,CLR,0.00,VWS V14.00,2013-03-28 04:30:00,
2013-03-28 00:34:00,39.1,30.5,30.02,NW,323,2.0,5.0,71,0.00,,FEW060,0.00,VWS V14.00,2013-03-28 04:34:00,
2013-03-28 00:39:00,38.9,30.3,30.03,NW,326,3.0,6.0,71,0.00,,FEW060,0.00,VWS V14.00,2013-03-28 04:39:00,
2013-03-28 00:45:00,38.7,30.5,30.02,NW,315,2.0,6.0,72,0.00,,FEW060,0.00,VWS V14.00,2013-03-28 04:45:00,
2013-03-28 00:50:00,38.7,30.5,30.02,NNW,347,3.0,6.0,72,0.00,,FEW060,0.00,VWS V14.00,2013-03-28 04:50:00,
2013-03-28 00:55:00,38.5,30.3,30.02,WNW,290,1.0,6.0,72,0.00,,FEW060,0.00,VWS V14.00,2013-03-28 04:55:00,
2013-03-28 01:00:00,38.3,30.4,30.02,NW,308,2.0,2.0,73,0.00,,FEW060,0.00,VWS V14.00,2013-03-28 05:00:00,
2013-03-28 01:05:00,38.1,30.2,30.02,WNW,285,2.0,5.0,73,0.00,,CLR,0.00,VWS V14.00,2013-03-28 05:05:00,
2013-03-28 01:10:00,38.1,30.2,30.02,NNW,327,3.0,5.0,73,0.00,,CLR,0.00,VWS V14.00,2013-03-28 05:10:00,
2013-03-28 01:16:00,38.0,30.1,30.02,NNW,333,1.0,5.0,73,0.00,,CLR,0.00,VWS V14.00,2013-03-28 05:16:00,
2013-03-28 01:21:00,37.7,30.2,30.03,NNW,338,2.0,5.0,74,0.00,,CLR,0.00,VWS V14.00,2013-03-28 05:21:00,
2013-03-28 01:26:00,37.7,30.2,30.02,NW,306,0.0,5.0,74,0.00,,CLR,0.00,VWS V14.00,2013-03-28 05:26:00,
2013-03-28 01:30:00,37.7,30.2,30.02,NNW,333,1.0,5.0,74,0.00,,CLR,0.00,VWS V14.00,2013-03-28 05:30:00,
2013-03-28 01:31:00,37.7,30.2,30.02,NW,311,3.0,4.0,74,0.00,,CLR,0.00,VWS V14.00,2013-03-28 05:31:00,
2013-03-28 01:36:00,37.7,30.5,30.02,WNW,295,2.0,9.0,75,0.00,,CLR,0.00,VWS V14.00,2013-03-28 05:36:00,
2013-03-28 01:42:00,37.7,30.5,30.02,NW,310,1.0,9.0,75,0.00,,CLR,0.00,VWS V14.00,2013-03-28 05:42:00,
2013-03-28 01:47:00,37.7,30.5,30.02,NW,304,1.0,9.0,75,0.00,,CLR,0.00,VWS V14.00,2013-03-28 05:47:00,
2013-03-28 01:53:00,37.7,30.5,30.02,NW,305,3.0,9.0,75,0.00,,CLR,0.00,VWS V14.00,2013-03-28 05:53:00,
2013-03-28 01:58:00,37.7,30.5,30.02,NW,322,4.0,9.0,75,0.00,,CLR,0.00,VWS V14.00,2013-03-28 05:58:00,
2013-03-28 02:00:00,37.7,30.5,30.02,North,350,1.0,9.0,75,0.00,,CLR,0.00,VWS V14.00,2013-03-28 06:00:00,
2013-03-28 02:03:00,37.6,30.4,30.02,WNW,293,2.0,6.0,75,0.00,,CLR,0.00,VWS V14.00,2013-03-28 06:03:00,
2013-03-28 02:08:00,37.7,30.5,30.02,NW,306,2.0,7.0,75,0.00,,CLR,0.00,VWS V14.00,2013-03-28 06:08:00,
2013-03-28 02:13:00,37.8,30.6,30.02,NW,310,3.0,10.0,75,0.00,,CLR,0.00,VWS V14.00,2013-03-28 06:13:00,
2013-03-28 02:19:00,37.7,30.5,30.02,NW,321,4.0,10.0,75,0.00,,CLR,0.00,VWS V14.00,2013-03-28 06:19:00,
2013-03-28 02:24:00,37.6,30.4,30.02,WNW,300,3.0,10.0,75,0.00,,CLR,0.00,VWS V14.00,2013-03-28 06:24:00,
2013-03-28 02:29:00,37.5,30.3,30.02,NW,316,4.0,10.0,75,0.00,,CLR,0.00,VWS V14.00,2013-03-28 06:29:00,
2013-03-28 02:30:00,37.5,30.3,30.02,NW,323,2.0,10.0,75,0.00,,CLR,0.00,VWS V14.00,2013-03-28 06:30:00,
2013-03-28 02:34:00,37.5,30.3,30.02,NNW,328,3.0,5.0,75,0.00,,CLR,0.00,VWS V14.00,2013-03-28 06:34:00,
2013-03-28 02:40:00,37.4,30.2,30.02,West,263,4.0,6.0,75,0.00,,CLR,0.00,VWS V14.00,2013-03-28 06:40:00,
2013-03-28 02:45:00,37.4,30.2,30.02,WNW,300,3.0,6.0,75,0.00,,CLR,0.00,VWS V14.00,2013-03-28 06:45:00,
2013-03-28 02:50:00,37.3,29.8,30.02,NNW,333,0.0,6.0,74,0.00,,CLR,0.00,VWS V14.00,2013-03-28 06:50:00,
2013-03-28 02:55:00,37.2,30.0,30.02,NW,307,4.0,6.0,75,0.00,,CLR,0.00,VWS V14.00,2013-03-28 06:55:00,
2013-03-28 03:00:00,37.3,29.8,30.01,North,349,5.0,6.0,74,0.00,,CLR,0.00,VWS V14.00,2013-03-28 07:00:00,
2013-03-28 03:06:00,37.1,29.6,30.01,NW,315,1.0,6.0,74,0.00,,CLR,0.00,VWS V14.00,2013-03-28 07:06:00,
2013-03-28 03:12:00,37.2,29.7,30.01,NNW,328,3.0,6.0,74,0.00,,CLR,0.00,VWS V14.00,2013-03-28 07:12:00,
2013-03-28 03:17:00,37.2,29.7,30.01,NNW,331,3.0,6.0,74,0.00,,CLR,0.00,VWS V14.00,2013-03-28 07:17:00,
2013-03-28 03:22:00,37.2,29.7,30.01,WNW,303,0.0,6.0,74,0.00,,CLR,0.00,VWS V14.00,2013-03-28 07:22:00,
2013-03-28 03:28:00,37.1,29.6,30.01,WNW,297,1.0,6.0,74,0.00,,CLR,0.00,VWS V14.00,2013-03-28 07:28:00,
2013-03-28 03:30:00,37.1,29.6,30.01,NW,319,1.0,6.0,74,0.00,,CLR,0.00,VWS V14.00,2013-03-28 07:30:00,
2013-03-28 03:33:00,36.9,29.4,30.01,West,260,0.0,2.0,74,0.00,,CLR,0.00,VWS V14.00,2013-03-28 07:33:00,
2013-03-28 03:38:00,36.9,29.4,30.01,WNW,297,1.0,4.0,74,0.00,,CLR,0.00,VWS V14.00,2013-03-28 07:38:00,
2013-03-28 03:43:00,36.9,29.4,30.01,West,279,0.0,6.0,74,0.00,,CLR,0.00,VWS V14.00,2013-03-28 07:43:00,
2013-03-28 03:48:00,36.7,29.2,30.01,SSW,211,0.0,6.0,74,0.00,,CLR,0.00,VWS V14.00,2013-03-28 07:48:00,
2013-03-28 03:53:00,36.4,28.9,30.01,South,170,0.0,6.0,74,0.00,,CLR,0.00,VWS V14.00,2013-03-28 07:53:00,
2013-03-28 03:58:00,36.3,29.1,30.01,WNW,297,1.0,6.0,75,0.00,,CLR,0.00,VWS V14.00,2013-03-28 07:58:00,
2013-03-28 04:00:00,36.3,29.1,30.01,WNW,284,0.0,6.0,75,0.00,,CLR,0.00,VWS V14.00,2013-03-28 08:00:00,
2013-03-28 04:03:00,36.1,29.3,30.01,West,269,1.0,2.0,76,0.00,,CLR,0.00,VWS V14.00,2013-03-28 08:03:00,
2013-03-28 04:09:00,35.9,29.1,30.01,WNW,298,2.0,2.0,76,0.00,,CLR,0.00,VWS V14.00,2013-03-28 08:09:00,
2013-03-28 04:14:00,35.9,29.1,30.01,West,279,1.0,3.0,76,0.00,,CLR,0.00,VWS V14.00,2013-03-28 08:14:00,
2013-03-28 04:19:00,35.7,28.9,30.01,West,280,1.0,3.0,76,0.00,,CLR,0.00,VWS V14.00,2013-03-28 08:19:00,
2013-03-28 04:24:00,35.7,29.2,30.01,WNW,282,1.0,3.0,77,0.00,,CLR,0.00,VWS V14.00,2013-03-28 08:24:00,
2013-03-28 04:29:00,35.9,29.1,30.01,WNW,291,1.0,3.0,76,0.00,,CLR,0.00,VWS V14.00,2013-03-28 08:29:00,
2013-03-28 04:30:00,35.9,29.1,30.01,West,266,0.0,3.0,76,0.00,,CLR,0.00,VWS V14.00,2013-03-28 08:30:00,
2013-03-28 04:34:00,35.8,29.0,30.01,NW,318,1.0,4.0,76,0.00,,CLR,0.00,VWS V14.00,2013-03-28 08:34:00,
2013-03-28 04:39:00,35.8,29.0,30.01,WNW,297,2.0,4.0,76,0.00,,CLR,0.00,VWS V14.00,2013-03-28 08:39:00,
2013-03-28 04:44:00,35.7,28.9,30.01,WNW,300,1.0,4.0,76,0.00,,CLR,0.00,VWS V14.00,2013-03-28 08:44:00,
2013-03-28 04:49:00,35.8,28.7,30.01,West,272,0.0,6.0,75,0.00,,CLR,0.00,VWS V14.00,2013-03-28 08:49:00,
2013-03-28 04:54:00,35.7,28.6,30.01,WNW,298,0.0,6.0,75,0.00,,CLR,0.00,VWS V14.00,2013-03-28 08:54:00,
2013-03-28 04:59:00,35.5,28.4,30.01,North,11,1.0,6.0,75,0.00,,CLR,0.00,VWS V14.00,2013-03-28 08:59:00,
2013-03-28 05:00:00,35.5,28.4,30.01,North,11,1.0,6.0,75,0.00,,CLR,0.00,VWS V14.00,2013-03-28 09:00:00,
2013-03-28 05:05:00,35.4,28.3,30.01,WNW,287,1.0,5.0,75,0.00,,CLR,0.00,VWS V14.00,2013-03-28 09:05:00,
2013-03-28 05:10:00,35.4,28.3,30.01,NW,311,2.0,5.0,75,0.00,,CLR,0.00,VWS V14.00,2013-03-28 09:10:00,
2013-03-28 05:15:00,35.2,28.1,30.01,NW,308,0.0,5.0,75,0.00,,CLR,0.00,VWS V14.00,2013-03-28 09:15:00,
2013-03-28 05:20:00,35.0,27.9,30.01,WSW,257,1.0,5.0,75,0.00,,CLR,0.00,VWS V14.00,2013-03-28 09:20:00,
2013-03-28 05:26:00,34.9,27.8,30.01,WNW,285,1.0,5.0,75,0.00,,CLR,0.00,VWS V14.00,2013-03-28 09:26:00,
2013-03-28 05:30:00,34.8,27.7,30.01,WNW,287,1.0,5.0,75,0.00,,CLR,0.00,VWS V14.00,2013-03-28 09:30:00,
2013-03-28 05:31:00,34.8,27.7,30.01,West,267,3.0,3.0,75,0.00,,CLR,0.00,VWS V14.00,2013-03-28 09:31:00,
2013-03-28 05:36:00,34.9,27.8,30.01,WNW,297,1.0,6.0,75,0.00,,CLR,0.00,VWS V14.00,2013-03-28 09:36:00,
2013-03-28 05:41:00,35.0,27.9,30.01,West,277,1.0,6.0,75,0.00,,CLR,0.00,VWS V14.00,2013-03-28 09:41:00,
2013-03-28 05:47:00,34.9,27.8,30.01,WNW,295,1.0,6.0,75,0.00,,CLR,0.00,VWS V14.00,2013-03-28 09:47:00,
2013-03-28 05:52:00,35.0,27.6,30.02,WNW,303,1.0,6.0,74,0.00,,CLR,0.00,VWS V14.00,2013-03-28 09:52:00,
2013-03-28 05:57:00,34.9,27.5,30.02,NW,311,0.0,6.0,74,0.00,,CLR,0.00,VWS V14.00,2013-03-28 09:57:00,
2013-03-28 06:00:00,34.9,27.5,30.02,WNW,297,1.0,6.0,74,0.00,,CLR,0.00,VWS V14.00,2013-03-28 10:00:00,
2013-03-28 06:02:00,34.8,27.4,30.02,WNW,300,3.0,3.0,74,0.00,,CLR,0.00,VWS V14.00,2013-03-28 10:02:00,
2013-03-28 06:07:00,34.8,27.4,30.02,WNW,293,0.0,3.0,74,0.00,,CLR,0.00,VWS V14.00,2013-03-28 10:07:00,
2013-03-28 06:12:00,34.6,27.5,30.02,WNW,288,1.0,4.0,75,0.00,,CLR,0.00,VWS V14.00,2013-03-28 10:12:00,
2013-03-28 06:17:00,34.8,27.4,30.02,WSW,249,0.0,5.0,74,0.00,,CLR,0.00,VWS V14.00,2013-03-28 10:17:00,
2013-03-28 06:22:00,34.9,27.5,30.02,NW,305,1.0,5.0,74,0.00,,CLR,0.00,VWS V14.00,2013-03-28 10:22:00,
2013-03-28 06:28:00,34.9,27.5,30.02,West,277,1.0,5.0,74,0.00,,CLR,0.00,VWS V14.00,2013-03-28 10:28:00,
2013-03-28 06:30:00,35.0,27.6,30.02,NW,311,1.0,5.0,74,0.00,,CLR,0.00,VWS V14.00,2013-03-28 10:30:00,
2013-03-28 06:33:00,35.0,27.6,30.02,WNW,282,2.0,3.0,74,0.00,,CLR,0.00,VWS V14.00,2013-03-28 10:33:00,
2013-03-28 06:38:00,35.1,27.7,30.02,WSW,245,1.0,4.0,74,0.00,,CLR,0.00,VWS V14.00,2013-03-28 10:38:00,
2013-03-28 06:43:00,34.9,27.5,30.02,NW,319,4.0,4.0,74,0.00,,CLR,0.00,VWS V14.00,2013-03-28 10:43:00,
2013-03-28 06:48:00,35.1,27.7,30.02,NW,318,1.0,6.0,74,0.00,,CLR,0.00,VWS V14.00,2013-03-28 10:48:00,
2013-03-28 06:53:00,35.2,27.8,30.02,WNW,297,2.0,7.0,74,0.00,,CLR,0.00,VWS V14.00,2013-03-28 10:53:00,
2013-03-28 06:58:00,35.3,27.9,30.02,WNW,293,3.0,7.0,74,0.00,,CLR,0.00,VWS V14.00,2013-03-28 10:58:00,
2013-03-28 07:00:00,35.3,27.5,30.03,NNW,330,4.0,7.0,73,0.00,,CLR,0.00,VWS V14.00,2013-03-28 11:00:00,
2013-03-28 07:03:00,35.4,27.6,30.03,West,276,2.0,5.0,73,0.00,,CLR,0.00,VWS V14.00,2013-03-28 11:03:00,
2013-03-28 07:08:00,35.4,27.6,30.03,West,277,1.0,5.0,73,0.00,,CLR,0.00,VWS V14.00,2013-03-28 11:08:00,
2013-03-28 07:14:00,35.5,27.7,30.03,WNW,297,4.0,5.0,73,0.00,,CLR,0.00,VWS V14.00,2013-03-28 11:14:00,
2013-03-28 07:19:00,35.7,27.9,30.03,NW,316,4.0,5.0,73,0.00,,CLR,0.00,VWS V14.00,2013-03-28 11:19:00,
2013-03-28 07:24:00,36.0,28.2,30.03,WNW,297,4.0,6.0,73,0.00,,CLR,0.00,VWS V14.00,2013-03-28 11:24:00,
2013-03-28 07:29:00,36.3,28.1,30.03,NW,305,6.0,9.0,72,0.00,,CLR,0.00,VWS V14.00,2013-03-28 11:29:00,
2013-03-28 07:30:00,36.3,28.1,30.03,NW,305,6.0,9.0,72,0.00,,CLR,0.00,VWS V14.00,2013-03-28 11:30:00,
2013-03-28 07:35:00,36.5,28.4,30.03,NW,319,3.0,11.0,72,0.00,,CLR,0.00,VWS V14.00,2013-03-28 11:35:00,
2013-03-28 07:40:00,36.7,28.5,30.03,NW,304,3.0,11.0,72,0.00,,CLR,0.00,VWS V14.00,2013-03-28 11:40:00,
2013-03-28 07:45:00,37.0,28.5,30.03,WNW,300,0.0,11.0,71,0.00,,CLR,0.00,VWS V14.00,2013-03-28 11:45:00,
2013-03-28 07:50:00,37.4,28.5,30.04,NNW,338,4.0,11.0,70,0.00,,CLR,0.00,VWS V14.00,2013-03-28 11:50:00,
2013-03-28 07:55:00,37.8,28.9,30.04,NW,310,8.0,12.0,70,0.00,,CLR,0.00,VWS V14.00,2013-03-28 11:55:00,
2013-03-28 08:00:00,38.1,29.2,30.04,WNW,301,6.0,12.0,70,0.00,,CLR,0.00,VWS V14.00,2013-03-28 12:00:00,
2013-03-28 08:01:00,38.2,28.9,30.04,WNW,302,2.0,7.0,69,0.00,,FEW060,0.00,VWS V14.00,2013-03-28 12:01:00,
2013-03-28 08:06:00,38.5,28.9,30.04,NNW,329,4.0,9.0,68,0.00,,FEW060,0.00,VWS V14.00,2013-03-28 12:06:00,
2013-03-28 08:12:00,38.9,29.6,30.04,NNW,341,2.0,9.0,69,0.00,,FEW060,0.00,VWS V14.00,2013-03-28 12:12:00,
2013-03-28 08:17:00,39.1,29.1,30.04,NNW,342,7.0,9.0,67,0.00,,FEW060,0.00,VWS V14.00,2013-03-28 12:17:00,
2013-03-28 08:22:00,39.3,29.3,30.04,NNW,328,9.0,14.0,67,0.00,,FEW060,0.00,VWS V14.00,2013-03-28 12:22:00,
2013-03-28 08:27:00,39.5,29.5,30.04,NNW,341,4.0,14.0,67,0.00,,FEW060,0.00,VWS V14.00,2013-03-28 12:27:00,
2013-03-28 08:30:00,39.6,29.6,30.04,North,6,4.0,14.0,67,0.00,,CLR,0.00,VWS V14.00,2013-03-28 12:30:00,
2013-03-28 08:32:00,39.9,29.5,30.04,WNW,302,6.0,11.0,66,0.00,,FEW060,0.00,VWS V14.00,2013-03-28 12:32:00,
2013-03-28 08:38:00,40.2,29.8,30.04,NW,311,3.0,11.0,66,0.00,,FEW060,0.00,VWS V14.00,2013-03-28 12:38:00,
2013-03-28 08:43:00,40.6,29.8,30.04,WNW,289,2.0,11.0,65,0.00,,FEW060,0.00,VWS V14.00,2013-03-28 12:43:00,
2013-03-28 08:59:00,41.5,30.2,30.04,North,352,4.0,11.0,64,0.00,,FEW060,0.00,VWS V14.00,2013-03-28 12:59:00,
2013-03-28 09:00:00,41.5,30.2,30.04,North,352,4.0,11.0,64,0.00,,CLR,0.00,VWS V14.00,2013-03-28 13:00:00,
2013-03-28 09:05:00,41.8,30.5,30.04,WSW,256,1.0,9.0,64,0.00,,FEW055,0.00,VWS V14.00,2013-03-28 13:05:00,
2013-03-28 09:10:00,42.4,30.7,30.04,NW,319,8.0,11.0,63,0.00,,FEW055,0.00,VWS V14.00,2013-03-28 13:10:00,
2013-03-28 09:15:00,42.5,30.4,30.04,North,360,2.0,13.0,62,0.00,,FEW055,0.00,VWS V14.00,2013-03-28 13:15:00,
2013-03-28 09:20:00,42.4,29.9,30.04,North,11,10.0,16.0,61,0.00,,FEW055,0.00,VWS V14.00,2013-03-28 13:20:00,
2013-03-28 09:25:00,42.7,30.6,30.04,North,11,6.0,16.0,62,0.00,,FEW055,0.00,VWS V14.00,2013-03-28 13:25:00,
2013-03-28 09:30:00,43.1,30.6,30.04,NNW,341,10.0,11.0,61,0.00,,FEW055,0.00,VWS V14.00,2013-03-28 13:30:00,
2013-03-28 09:35:00,43.6,30.6,30.04,NW,319,2.0,11.0,60,0.00,,FEW055,0.00,VWS V14.00,2013-03-28 13:35:00,
2013-03-28 09:40:00,43.4,30.0,30.04,North,351,4.0,15.0,59,0.00,,FEW055,0.00,VWS V14.00,2013-03-28 13:40:00,
2013-03-28 09:46:00,43.3,30.4,30.04,North,8,6.0,17.0,60,0.00,,FEW055,0.00,VWS V14.00,2013-03-28 13:46:00,
2013-03-28 09:51:00,43.6,30.6,30.04,NNW,330,4.0,17.0,60,0.00,,FEW055,0.00,VWS V14.00,2013-03-28 13:51:00,
2013-03-28 09:56:00,44.2,30.8,30.04,North,11,5.0,17.0,59,0.00,,FEW055,0.00,VWS V14.00,2013-03-28 13:56:00,
2013-03-28 10:00:00,44.0,30.2,30.05,NNW,333,6.0,17.0,58,0.00,,CLR,0.00,VWS V14.00,2013-03-28 14:00:00,
2013-03-28 10:01:00,43.9,29.7,30.05,NW,308,6.0,10.0,57,0.00,,FEW050,0.00,VWS V14.00,2013-03-28 14:01:00,
2013-03-28 10:06:00,44.5,30.7,30.05,ENE,58,1.0,12.0,58,0.00,,FEW050,0.00,VWS V14.00,2013-03-28 14:06:00,
2013-03-28 10:11:00,44.7,30.4,30.05,NW,311,6.0,13.0,57,0.00,,FEW050,0.00,VWS V14.00,2013-03-28 14:11:00,
2013-03-28 10:17:00,44.3,30.0,30.05,NNE,24,3.0,16.0,57,0.00,,FEW050,0.00,VWS V14.00,2013-03-28 14:17:00,
2013-03-28 10:22:00,45.4,32.3,30.05,ESE,118,3.0,16.0,60,0.00,,FEW050,0.00,VWS V14.00,2013-03-28 14:22:00,
2013-03-28 10:27:00,45.7,30.5,30.05,North,357,6.0,16.0,55,0.00,,FEW050,0.00,VWS V14.00,2013-03-28 14:27:00,
2013-03-28 10:30:00,45.4,30.6,30.05,ESE,106,5.0,16.0,56,0.00,,CLR,0.00,VWS V14.00,2013-03-28 14:30:00,
2013-03-28 10:32:00,45.1,29.9,30.05,NNW,330,6.0,15.0,55,0.00,,FEW050,0.00,VWS V14.00,2013-03-28 14:32:00,
2013-03-28 10:37:00,44.8,30.1,30.05,NNW,338,6.0,15.0,56,0.00,,FEW050,0.00,VWS V14.00,2013-03-28 14:37:00,
2013-03-28 10:42:00,44.7,30.4,30.05,NW,320,9.0,15.0,57,0.00,,FEW050,0.00,VWS V14.00,2013-03-28 14:42:00,
2013-03-28 10:47:00,45.8,31.5,30.05,NNE,18,13.0,15.0,57,0.00,,FEW050,0.00,VWS V14.00,2013-03-28 14:47:00,
2013-03-28 10:52:00,45.6,30.4,30.05,North,352,5.0,15.0,55,0.00,,FEW050,0.00,VWS V14.00,2013-03-28 14:52:00,
2013-03-28 10:58:00,45.6,30.8,30.05,NNE,29,6.0,15.0,56,0.00,,FEW050,0.00,VWS V14.00,2013-03-28 14:58:00,
2013-03-28 11:00:00,45.9,30.7,30.05,North,11,1.0,15.0,55,0.00,,CLR,0.00,VWS V14.00,2013-03-28 15:00:00,
2013-03-28 11:03:00,46.7,31.4,30.05,NNW,338,6.0,8.0,55,0.00,,OVC055,0.00,VWS V14.00,2013-03-28 15:03:00,
2013-03-28 11:08:00,46.2,29.6,30.05,NW,311,4.0,12.0,52,0.00,,OVC055,0.00,VWS V14.00,2013-03-28 15:08:00,
2013-03-28 11:13:00,46.2,30.0,30.05,NW,326,12.0,13.0,53,0.00,,OVC055,0.00,VWS V14.00,2013-03-28 15:13:00,
2013-03-28 11:18:00,46.3,29.2,30.05,NNW,332,3.0,13.0,51,0.00,,OVC055,0.00,VWS V14.00,2013-03-28 15:18:00,
2013-03-28 11:23:00,46.7,30.0,30.05,NNW,339,5.0,14.0,52,0.00,,OVC055,0.00,VWS V14.00,2013-03-28 15:23:00,
2013-03-28 11:29:00,46.8,29.6,30.05,NW,318,5.0,14.0,51,0.00,,OVC055,0.00,VWS V14.00,2013-03-28 15:29:00,
2013-03-28 11:30:00,46.8,29.6,30.05,NW,324,5.0,14.0,51,0.00,,CLR,0.00,VWS V14.00,2013-03-28 15:30:00,
2013-03-28 11:34:00,47.0,29.8,30.05,NNE,30,10.0,10.0,51,0.00,,OVC055,0.00,VWS V14.00,2013-03-28 15:34:00,
2013-03-28 11:39:00,46.6,29.9,30.05,North,351,10.0,15.0,52,0.00,,OVC055,0.00,VWS V14.00,2013-03-28 15:39:00,
2013-03-28 11:44:00,47.0,29.3,30.05,NE,46,4.0,15.0,50,0.00,,OVC055,0.00,VWS V14.00,2013-03-28 15:44:00,
2013-03-28 11:49:00,47.5,30.3,30.05,NNW,344,9.0,15.0,51,0.00,,OVC055,0.00,VWS V14.00,2013-03-28 15:49:00,
2013-03-28 11:54:00,47.7,29.5,30.05,NNW,333,6.0,15.0,49,0.00,,OVC055,0.00,VWS V14.00,2013-03-28 15:54:00,
2013-03-28 11:59:00,47.8,29.6,30.05,NNE,13,3.0,15.0,49,0.00,,OVC055,0.00,VWS V14.00,2013-03-28 15:59:00,
2013-03-28 12:00:00,47.7,29.5,30.05,NNE,23,3.0,15.0,49,0.00,,CLR,0.00,VWS V14.00,2013-03-28 16:00:00,
2013-03-28 12:04:00,48.2,30.0,30.04,NNW,330,3.0,11.0,49,0.00,,BKN075,0.00,VWS V14.00,2013-03-28 16:04:00,
2013-03-28 12:10:00,48.3,30.0,30.04,North,5,8.0,17.0,49,0.00,,BKN075,0.00,VWS V14.00,2013-03-28 16:10:00,
2013-03-28 12:15:00,47.8,28.6,30.04,ENE,64,2.0,17.0,47,0.00,,BKN075,0.00,VWS V14.00,2013-03-28 16:15:00,
2013-03-28 12:20:00,48.8,30.0,30.04,North,8,2.0,17.0,48,0.00,,BKN075,0.00,VWS V14.00,2013-03-28 16:20:00,
2013-03-28 12:25:00,49.9,30.5,30.04,NNW,339,6.0,17.0,47,0.00,,BKN075,0.00,VWS V14.00,2013-03-28 16:25:00,
2013-03-28 12:30:00,49.4,30.0,30.04,East,86,4.0,9.0,47,0.00,,BKN075,0.00,VWS V14.00,2013-03-28 16:30:00,
2013-03-28 12:36:00,48.7,29.4,30.04,NNW,333,3.0,11.0,47,0.00,,BKN075,0.00,VWS V14.00,2013-03-28 16:36:00,
2013-03-28 12:41:00,48.5,29.2,30.04,NE,39,4.0,12.0,47,0.00,,BKN075,0.00,VWS V14.00,2013-03-28 16:41:00,
2013-03-28 12:46:00,48.1,29.4,30.04,NNE,15,8.0,12.0,48,0.00,,BKN075,0.00,VWS V14.00,2013-03-28 16:46:00,
2013-03-28 12:52:00,47.9,29.7,30.04,NNE,23,4.0,12.0,49,0.00,,BKN075,0.00,VWS V14.00,2013-03-28 16:52:00,
2013-03-28 12:57:00,48.1,28.3,30.04,NW,304,2.0,15.0,46,0.00,,BKN075,0.00,VWS V14.00,2013-03-28 16:57:00,
2013-03-28 13:00:00,48.3,29.5,30.04,North,356,4.0,15.0,48,0.00,,CLR,0.00,VWS V14.00,2013-03-28 17:00:00,
2013-03-28 13:02:00,48.7,29.4,30.04,NNW,333,1.0,9.0,47,0.00,,OVC070,0.00,VWS V14.00,2013-03-28 17:02:00,
2013-03-28 13:07:00,48.7,28.3,30.04,North,351,7.0,13.0,45,0.00,,OVC070,0.00,VWS V14.00,2013-03-28 17:07:00,
2013-03-28 13:12:00,48.7,28.3,30.04,NW,309,7.0,13.0,45,0.00,,OVC070,0.00,VWS V14.00,2013-03-28 17:12:00,
2013-03-28 13:17:00,48.6,28.8,30.04,NW,320,5.0,13.0,46,0.00,,OVC070,0.00,VWS V14.00,2013-03-28 17:17:00,
2013-03-28 13:22:00,48.4,28.6,30.04,WNW,301,7.0,13.0,46,0.00,,OVC070,0.00,VWS V14.00,2013-03-28 17:22:00,
2013-03-28 13:27:00,47.9,27.6,30.04,NNW,330,3.0,13.0,45,0.00,,OVC070,0.00,VWS V14.00,2013-03-28 17:27:00,
2013-03-28 13:30:00,48.2,28.4,30.04,North,356,10.0,13.0,46,0.00,,CLR,0.00,VWS V14.00,2013-03-28 17:30:00,
2013-03-28 13:32:00,48.7,28.3,30.04,NNW,328,10.0,10.0,45,0.00,,OVC070,0.00,VWS V14.00,2013-03-28 17:32:00,
2013-03-28 13:37:00,48.2,27.3,30.04,NE,34,4.0,12.0,44,0.00,,OVC070,0.00,VWS V14.00,2013-03-28 17:37:00,
2013-03-28 13:42:00,48.0,27.7,30.04,NW,309,2.0,12.0,45,0.00,,OVC070,0.00,VWS V14.00,2013-03-28 17:42:00,
2013-03-28 13:47:00,48.4,29.1,30.04,NW,315,4.0,12.0,47,0.00,,OVC070,0.00,VWS V14.00,2013-03-28 17:47:00,
2013-03-28 13:53:00,48.5,28.7,30.04,WSW,253,4.0,12.0,46,0.00,,OVC070,0.00,VWS V14.00,2013-03-28 17:53:00,
2013-03-28 13:58:00,48.4,27.5,30.04,North,358,17.0,18.0,44,0.00,,OVC070,0.00,VWS V14.00,2013-03-28 17:58:00,
2013-03-28 14:00:00,48.1,27.2,30.04,North,350,9.0,18.0,44,0.00,,CLR,0.00,VWS V14.00,2013-03-28 18:00:00,
2013-03-28 14:03:00,48.1,28.3,30.04,NNW,333,3.0,10.0,46,0.00,,OVC075,0.00,VWS V14.00,2013-03-28 18:03:00,
2013-03-28 14:08:00,48.0,27.7,30.04,North,8,8.0,15.0,45,0.00,,OVC075,0.00,VWS V14.00,2013-03-28 18:08:00,
2013-03-28 14:13:00,47.8,27.5,30.04,WNW,284,4.0,15.0,45,0.00,,OVC075,0.00,VWS V14.00,2013-03-28 18:13:00,
2013-03-28 14:19:00,47.9,28.7,30.04,NW,316,10.0,15.0,47,0.00,,OVC075,0.00,VWS V14.00,2013-03-28 18:19:00,
2013-03-28 14:24:00,47.7,29.0,30.04,NNE,22,3.0,15.0,48,0.00,,OVC075,0.00,VWS V14.00,2013-03-28 18:24:00,
2013-03-28 14:29:00,47.5,28.8,30.05,NNE,23,6.0,15.0,48,0.00,,OVC075,0.00,VWS V14.00,2013-03-28 18:29:00,
2013-03-28 14:30:00,47.5,28.8,30.05,North,11,7.0,15.0,48,0.00,,CLR,0.00,VWS V14.00,2013-03-28 18:30:00,
2013-03-28 14:34:00,47.7,29.5,30.04,NW,309,9.0,12.0,49,0.00,,OVC075,0.00,VWS V14.00,2013-03-28 18:34:00,
2013-03-28 14:39:00,47.6,28.9,30.04,NW,315,5.0,14.0,48,0.00,,OVC075,0.00,VWS V14.00,2013-03-28 18:39:00,
2013-03-28 14:44:00,47.9,28.7,30.05,NNW,336,8.0,14.0,47,0.00,,OVC075,0.00,VWS V14.00,2013-03-28 18:44:00,
2013-03-28 14:49:00,47.9,29.2,30.04,NE,49,5.0,14.0,48,0.00,,OVC075,0.00,VWS V14.00,2013-03-28 18:49:00,
2013-03-28 14:54:00,47.8,28.6,30.04,North,354,5.0,14.0,47,0.00,,OVC075,0.00,VWS V14.00,2013-03-28 18:54:00,
2013-03-28 14:59:00,48.0,29.3,30.04,NNW,347,2.0,14.0,48,0.00,,OVC075,0.00,VWS V14.00,2013-03-28 18:59:00,
2013-03-28 15:00:00,48.0,29.3,30.04,NNW,347,2.0,14.0,48,0.00,,CLR,0.00,VWS V14.00,2013-03-28 19:00:00,
2013-03-28 15:05:00,48.5,28.7,30.04,NW,326,5.0,8.0,46,0.00,,OVC080,0.00,VWS V14.00,2013-03-28 19:05:00,
2013-03-28 15:10:00,48.5,28.1,30.04,NW,323,8.0,10.0,45,0.00,,OVC080,0.00,VWS V14.00,2013-03-28 19:10:00,
2013-03-28 15:15:00,48.5,28.7,30.04,NW,319,2.0,10.0,46,0.00,,OVC080,0.00,VWS V14.00,2013-03-28 19:15:00,
2013-03-28 15:20:00,48.2,28.9,30.04,NW,316,10.0,14.0,47,0.00,,OVC080,0.00,VWS V14.00,2013-03-28 19:20:00,
2013-03-28 15:25:00,48.1,28.3,30.04,WNW,302,5.0,14.0,46,0.00,,OVC080,0.00,VWS V14.00,2013-03-28 19:25:00,
2013-03-28 15:30:00,48.1,28.3,30.04,East,96,2.0,7.0,46,0.00,,OVC080,0.00,VWS V14.00,2013-03-28 19:30:00,
2013-03-28 15:36:00,48.5,28.7,30.04,NNW,331,3.0,13.0,46,0.00,,OVC080,0.00,VWS V14.00,2013-03-28 19:36:00,
2013-03-28 15:41:00,48.9,29.6,30.04,WNW,300,3.0,13.0,47,0.00,,OVC080,0.00,VWS V14.00,2013-03-28 19:41:00,
2013-03-28 15:46:00,49.1,29.8,30.04,NNW,330,4.0,13.0,47,0.00,,OVC080,0.00,VWS V14.00,2013-03-28 19:46:00,
2013-03-28 15:51:00,48.8,29.5,30.04,NW,326,2.0,14.0,47,0.00,,OVC080,0.00,VWS V14.00,2013-03-28 19:51:00,
2013-03-28 15:57:00,48.7,29.4,30.04,NW,305,7.0,14.0,47,0.00,,OVC080,0.00,VWS V14.00,2013-03-28 19:57:00,
2013-03-28 16:00:00,48.5,29.2,30.04,NNW,329,3.0,14.0,47,0.00,,CLR,0.00,VWS V14.00,2013-03-28 20:00:00,
2013-03-28 16:02:00,48.5,29.7,30.04,ENE,58,4.0,10.0,48,0.00,,OVC080,0.00,VWS V14.00,2013-03-28 20:02:00,
2013-03-28 16:07:00,48.2,28.9,30.04,NW,319,1.0,10.0,47,0.00,,OVC080,0.00,VWS V14.00,2013-03-28 20:07:00,
2013-03-28 16:12:00,48.1,28.8,30.05,NNW,347,3.0,13.0,47,0.00,,OVC080,0.00,VWS V14.00,2013-03-28 20:12:00,
2013-03-28 16:17:00,48.1,28.8,30.04,WNW,287,8.0,13.0,47,0.00,,OVC080,0.00,VWS V14.00,2013-03-28 20:17:00,
2013-03-28 16:23:00,48.3,29.0,30.04,NW,326,6.0,13.0,47,0.00,,OVC080,0.00,VWS V14.00,2013-03-28 20:23:00,
2013-03-28 16:28:00,48.5,28.1,30.04,NW,322,6.0,13.0,45,0.00,,OVC080,0.00,VWS V14.00,2013-03-28 20:28:00,
2013-03-28 16:30:00,48.6,28.8,30.05,NE,46,4.0,13.0,46,0.00,,CLR,0.00,VWS V14.00,2013-03-28 20:30:00,
2013-03-28 16:33:00,49.0,28.6,30.04,NNW,344,6.0,11.0,45,0.00,,OVC080,0.00,VWS V14.00,2013-03-28 20:33:00,
2013-03-28 16:38:00,48.9,28.5,30.04,NNW,342,8.0,11.0,45,0.00,,OVC080,0.00,VWS V14.00,2013-03-28 20:38:00,
2013-03-28 16:43:00,48.9,29.0,30.05,West,271,3.0,12.0,46,0.00,,OVC080,0.00,VWS V14.00,2013-03-28 20:43:00,
2013-03-28 16:49:00,49.0,28.6,30.05,North,5,8.0,12.0,45,0.00,,OVC080,0.00,VWS V14.00,2013-03-28 20:49:00,
2013-03-28 16:54:00,49.1,29.2,30.05,NNW,339,6.0,13.0,46,0.00,,OVC080,0.00,VWS V14.00,2013-03-28 20:54:00,
2013-03-28 16:59:00,49.0,29.1,30.05,NNE,13,5.0,13.0,46,0.00,,OVC080,0.00,VWS V14.00,2013-03-28 20:59:00,
2013-03-28 17:00:00,48.9,29.6,30.05,NW,315,5.0,13.0,47,0.00,,CLR,0.00,VWS V14.00,2013-03-28 21:00:00,
2013-03-28 17:04:00,48.6,29.3,30.05,NNW,341,6.0,14.0,47,0.00,,OVC080,0.00,VWS V14.00,2013-03-28 21:04:00,
2013-03-28 17:09:00,48.5,29.2,30.06,NNW,334,6.0,14.0,47,0.00,,OVC080,0.00,VWS V14.00,2013-03-28 21:09:00,
2013-03-28 17:14:00,48.2,28.4,30.06,NW,310,7.0,14.0,46,0.00,,OVC080,0.00,VWS V14.00,2013-03-28 21:14:00,
2013-03-28 17:19:00,48.0,28.8,30.06,NNW,330,9.0,14.0,47,0.00,,OVC080,0.00,VWS V14.00,2013-03-28 21:19:00,
2013-03-28 17:25:00,47.8,28.6,30.06,NNW,341,3.0,14.0,47,0.00,,OVC080,0.00,VWS V14.00,2013-03-28 21:25:00,
2013-03-28 17:30:00,48.1,29.4,30.06,NNW,327,5.0,9.0,48,0.00,,OVC080,0.00,VWS V14.00,2013-03-28 21:30:00,
2013-03-28 17:35:00,48.5,29.2,30.06,NW,315,7.0,9.0,47,0.00,,OVC080,0.00,VWS V14.00,2013-03-28 21:35:00,
2013-03-28 17:40:00,49.0,29.1,30.06,NNW,340,2.0,9.0,46,0.00,,OVC080,0.00,VWS V14.00,2013-03-28 21:40:00,
2013-03-28 17:45:00,49.3,29.4,30.07,NNW,328,4.0,9.0,46,0.00,,OVC080,0.00,VWS V14.00,2013-03-28 21:45:00,
2013-03-28 17:50:00,49.0,29.7,30.07,NW,322,4.0,10.0,47,0.00,,OVC080,0.00,VWS V14.00,2013-03-28 21:50:00,
2013-03-28 17:56:00,48.8,29.0,30.07,WNW,300,5.0,13.0,46,0.00,,OVC080,0.00,VWS V14.00,2013-03-28 21:56:00,
2013-03-28 18:00:00,48.5,28.7,30.07,NW,318,3.0,13.0,46,0.00,,CLR,0.00,VWS V14.00,2013-03-28 22:00:00,
2013-03-28 18:01:00,48.5,28.7,30.07,WNW,297,6.0,8.0,46,0.00,,OVC080,0.00,VWS V14.00,2013-03-28 22:01:00,
2013-03-28 18:06:00,48.4,29.1,30.07,NW,311,4.0,8.0,47,0.00,,OVC080,0.00,VWS V14.00,2013-03-28 22:06:00,
2013-03-28 18:11:00,48.2,29.5,30.08,North,351,2.0,8.0,48,0.00,,OVC080,0.00,VWS V14.00,2013-03-28 22:11:00,
2013-03-28 18:17:00,48.0,29.8,30.08,NNW,333,1.0,8.0,49,0.00,,OVC080,0.00,VWS V14.00,2013-03-28 22:17:00,
2013-03-28 18:22:00,47.8,29.6,30.08,NNW,329,7.0,11.0,49,0.00,,OVC080,0.00,VWS V14.00,2013-03-28 22:22:00,
2013-03-28 18:27:00,47.7,29.5,30.08,NW,309,5.0,11.0,49,0.00,,OVC080,0.00,VWS V14.00,2013-03-28 22:27:00,
2013-03-28 18:30:00,47.6,29.4,30.08,North,350,6.0,11.0,49,0.00,,CLR,0.00,VWS V14.00,2013-03-28 22:30:00,
2013-03-28 18:32:00,47.5,28.8,30.08,NNW,330,3.0,14.0,48,0.00,,OVC080,0.00,VWS V14.00,2013-03-28 22:32:00,
2013-03-28 18:37:00,47.5,29.3,30.08,NW,322,5.0,14.0,49,0.00,,OVC080,0.00,VWS V14.00,2013-03-28 22:37:00,
2013-03-28 18:42:00,47.4,29.2,30.08,NNW,335,8.0,14.0,49,0.00,,OVC080,0.00,VWS V14.00,2013-03-28 22:42:00,
2013-03-28 18:47:00,47.3,29.1,30.09,NNW,341,3.0,14.0,49,0.00,,OVC080,0.00,VWS V14.00,2013-03-28 22:47:00,
2013-03-28 18:52:00,47.3,29.1,30.09,NE,48,2.0,14.0,49,0.00,,OVC080,0.00,VWS V14.00,2013-03-28 22:52:00,
2013-03-28 18:57:00,47.2,29.5,30.09,NW,322,5.0,14.0,50,0.00,,OVC080,0.00,VWS V14.00,2013-03-28 22:57:00,
2013-03-28 19:00:00,47.2,29.0,30.09,NW,320,4.0,14.0,49,0.00,,CLR,0.00,VWS V14.00,2013-03-28 23:00:00,
2013-03-28 19:03:00,47.1,29.4,30.09,NW,304,4.0,5.0,50,0.00,,OVC080,0.00,VWS V14.00,2013-03-28 23:03:00,
2013-03-28 19:08:00,47.0,28.9,30.09,NNW,335,4.0,7.0,49,0.00,,OVC080,0.00,VWS V14.00,2013-03-28 23:08:00,
2013-03-28 19:13:00,46.9,29.2,30.10,North,350,3.0,7.0,50,0.00,,BKN085,0.00,VWS V14.00,2013-03-28 23:13:00,
2013-03-28 19:18:00,46.8,29.2,30.10,NNW,338,3.0,7.0,50,0.00,,BKN085,0.00,VWS V14.00,2013-03-28 23:18:00,
2013-03-28 19:23:00,46.7,29.1,30.10,NNW,338,5.0,8.0,50,0.00,,BKN085,0.00,VWS V14.00,2013-03-28 23:23:00,
2013-03-28 19:28:00,46.5,28.9,30.10,NW,318,4.0,8.0,50,0.00,,BKN085,0.00,VWS V14.00,2013-03-28 23:28:00,
2013-03-28 19:30:00,46.5,29.4,30.10,West,272,5.0,8.0,51,0.00,,CLR,0.00,VWS V14.00,2013-03-28 23:30:00,
2013-03-28 19:33:00,46.4,29.3,30.10,NNW,345,2.0,9.0,51,0.00,,BKN085,0.00,VWS V14.00,2013-03-28 23:33:00,
2013-03-28 19:38:00,46.4,29.3,30.10,NNW,330,4.0,9.0,51,0.00,,BKN085,0.00,VWS V14.00,2013-03-28 23:38:00,
2013-03-28 19:43:00,46.3,29.2,30.11,NW,305,2.0,11.0,51,0.00,,BKN085,0.00,VWS V14.00,2013-03-28 23:43:00,
2013-03-28 19:48:00,46.2,29.1,30.11,WNW,289,1.0,11.0,51,0.00,,BKN085,0.00,VWS V14.00,2013-03-28 23:48:00,
2013-03-28 19:54:00,46.1,29.0,30.11,NW,323,2.0,11.0,51,0.00,,BKN085,0.00,VWS V14.00,2013-03-28 23:54:00,
2013-03-28 19:59:00,46.0,29.4,30.11,NW,323,4.0,11.0,52,0.00,,BKN085,0.00,VWS V14.00,2013-03-28 23:59:00,
2013-03-28 20:00:00,46.1,29.5,30.11,WNW,303,5.0,11.0,52,0.00,,CLR,0.00,VWS V14.00,2013-03-29 00:00:00,
2013-03-28 20:04:00,46.0,29.4,30.11,North,6,2.0,8.0,52,0.00,,OVC080,0.00,VWS V14.00,2013-03-29 00:04:00,
2013-03-28 20:09:00,46.0,29.4,30.11,NNW,329,3.0,10.0,52,0.00,,OVC080,0.00,VWS V14.00,2013-03-29 00:09:00,
2013-03-28 20:14:00,46.1,29.5,30.11,NNW,341,5.0,10.0,52,0.00,,OVC080,0.00,VWS V14.00,2013-03-29 00:14:00,
2013-03-28 20:20:00,46.1,29.5,30.12,NW,319,3.0,10.0,52,0.00,,OVC080,0.00,VWS V14.00,2013-03-29 00:20:00,
2013-03-28 20:25:00,46.1,29.5,30.12,NW,323,2.0,10.0,52,0.00,,OVC080,0.00,VWS V14.00,2013-03-29 00:25:00,
2013-03-28 20:30:00,46.0,29.4,30.12,NW,322,1.0,3.0,52,0.00,,OVC080,0.00,VWS V14.00,2013-03-29 00:30:00,
2013-03-28 20:35:00,46.0,29.4,30.13,NNW,331,3.0,9.0,52,0.00,,OVC080,0.00,VWS V14.00,2013-03-29 00:35:00,
2013-03-28 20:40:00,46.0,29.8,30.13,NW,316,4.0,9.0,53,0.00,,OVC080,0.00,VWS V14.00,2013-03-29 00:40:00,
2013-03-28 20:45:00,46.0,29.4,30.13,North,350,8.0,9.0,52,0.00,,OVC080,0.00,VWS V14.00,2013-03-29 00:45:00,
2013-03-28 20:51:00,46.0,29.4,30.13,NW,314,6.0,9.0,52,0.00,,OVC080,0.00,VWS V14.00,2013-03-29 00:51:00,
2013-03-28 20:57:00,45.9,29.8,30.13,NNW,334,4.0,9.0,53,0.00,,OVC080,0.00,VWS V14.00,2013-03-29 00:57:00,
2013-03-28 21:00:00,45.9,29.8,30.13,NNE,20,5.0,9.0,53,0.00,,CLR,0.00,VWS V14.00,2013-03-29 01:00:00,
2013-03-28 21:02:00,45.9,29.8,30.13,WNW,302,7.0,9.0,53,0.00,,OVC075,0.00,VWS V14.00,2013-03-29 01:02:00,
2013-03-28 21:07:00,45.9,29.8,30.13,WNW,298,3.0,9.0,53,0.00,,OVC075,0.00,VWS V14.00,2013-03-29 01:07:00,
2013-03-28 21:12:00,45.9,29.8,30.14,NW,315,5.0,9.0,53,0.00,,OVC075,0.00,VWS V14.00,2013-03-29 01:12:00,
2013-03-28 21:17:00,45.9,29.8,30.14,NW,310,5.0,9.0,53,0.00,,OVC075,0.00,VWS V14.00,2013-03-29 01:17:00,
2013-03-28 21:23:00,45.8,29.7,30.14,NNW,328,5.0,9.0,53,0.00,,OVC075,0.00,VWS V14.00,2013-03-29 01:23:00,
2013-03-28 21:28:00,45.7,29.6,30.14,NW,324,2.0,9.0,53,0.00,,OVC075,0.00,VWS V14.00,2013-03-29 01:28:00,
2013-03-28 21:30:00,45.7,29.6,30.14,NNW,336,3.0,9.0,53,0.00,,CLR,0.00,VWS V14.00,2013-03-29 01:30:00,
2013-03-28 21:33:00,45.7,29.6,30.14,North,354,6.0,9.0,53,0.00,,OVC075,0.00,VWS V14.00,2013-03-29 01:33:00,
2013-03-28 21:38:00,45.7,30.0,30.15,NW,315,2.0,9.0,54,0.00,,OVC075,0.00,VWS V14.00,2013-03-29 01:38:00,
2013-03-28 21:44:00,45.7,30.0,30.14,NNW,344,4.0,9.0,54,0.00,,OVC075,0.00,VWS V14.00,2013-03-29 01:44:00,
2013-03-28 21:49:00,45.7,29.6,30.15,NNW,338,2.0,9.0,53,0.00,,OVC075,0.00,VWS V14.00,2013-03-29 01:49:00,
2013-03-28 21:54:00,45.6,29.9,30.15,NW,316,1.0,9.0,54,0.00,,OVC075,0.00,VWS V14.00,2013-03-29 01:54:00,
2013-03-28 21:59:00,45.4,29.7,30.15,NW,326,1.0,9.0,54,0.00,,OVC075,0.00,VWS V14.00,2013-03-29 01:59:00,
2013-03-28 22:00:00,45.4,29.7,30.15,WNW,300,1.0,9.0,54,0.00,,CLR,0.00,VWS V14.00,2013-03-29 02:00:00,
2013-03-28 22:04:00,45.4,29.7,30.15,NNW,332,1.0,5.0,54,0.00,,OVC075,0.00,VWS V14.00,2013-03-29 02:04:00,
2013-03-28 22:09:00,45.3,29.6,30.15,WNW,289,2.0,7.0,54,0.00,,OVC075,0.00,VWS V14.00,2013-03-29 02:09:00,
2013-03-28 22:15:00,45.3,29.6,30.15,West,276,5.0,7.0,54,0.00,,OVC075,0.00,VWS V14.00,2013-03-29 02:15:00,
2013-03-28 22:20:00,45.2,29.6,30.15,North,355,1.0,7.0,54,0.00,,OVC075,0.00,VWS V14.00,2013-03-29 02:20:00,
2013-03-28 22:25:00,45.2,29.6,30.15,NW,304,3.0,7.0,54,0.00,,OVC075,0.00,VWS V14.00,2013-03-29 02:25:00,
2013-03-28 22:30:00,45.2,29.6,30.15,NW,310,3.0,5.0,54,0.00,,OVC075,0.00,VWS V14.00,2013-03-29 02:30:00,
2013-03-28 22:35:00,45.2,29.6,30.15,NNW,330,4.0,7.0,54,0.00,,OVC075,0.00,VWS V14.00,2013-03-29 02:35:00,
2013-03-28 22:40:00,45.1,29.9,30.15,NW,326,4.0,8.0,55,0.00,,OVC075,0.00,VWS V14.00,2013-03-29 02:40:00,
2013-03-28 22:45:00,45.2,30.0,30.14,NW,308,5.0,9.0,55,0.00,,OVC075,0.00,VWS V14.00,2013-03-29 02:45:00,
2013-03-28 22:51:00,45.2,30.0,30.14,NNW,330,2.0,9.0,55,0.00,,OVC075,0.00,VWS V14.00,2013-03-29 02:51:00,
2013-03-28 22:56:00,45.1,29.9,30.14,NNW,347,8.0,9.0,55,0.00,,OVC075,0.00,VWS V14.00,2013-03-29 02:56:00,
2013-03-28 23:00:00,45.1,29.9,30.14,NW,308,1.0,9.0,55,0.00,,CLR,0.00,VWS V14.00,2013-03-29 03:00:00,
2013-03-28 23:01:00,45.1,29.9,30.14,NW,320,4.0,5.0,55,0.00,,OVC070,0.00,VWS V14.00,2013-03-29 03:01:00,
2013-03-28 23:06:00,45.0,29.8,30.15,WNW,294,4.0,8.0,55,0.00,,OVC070,0.00,VWS V14.00,2013-03-29 03:06:00,
2013-03-28 23:12:00,44.8,29.6,30.15,NW,311,3.0,8.0,55,0.00,,OVC070,0.00,VWS V14.00,2013-03-29 03:12:00,
2013-03-28 23:17:00,44.8,29.6,30.15,NNW,334,9.0,11.0,55,0.00,,OVC070,0.00,VWS V14.00,2013-03-29 03:17:00,
2013-03-28 23:22:00,44.7,29.5,30.15,NNW,340,3.0,11.0,55,0.00,,OVC070,0.00,VWS V14.00,2013-03-29 03:22:00,
2013-03-28 23:27:00,44.4,29.7,30.15,NW,316,4.0,11.0,56,0.00,,OVC070,0.00,VWS V14.00,2013-03-29 03:27:00,
2013-03-28 23:30:00,44.3,29.6,30.15,NNW,335,1.0,11.0,56,0.00,,CLR,0.00,VWS V14.00,2013-03-29 03:30:00,
2013-03-28 23:32:00,44.1,29.4,30.15,WNW,293,5.0,5.0,56,0.00,,OVC070,0.00,VWS V14.00,2013-03-29 03:32:00,
2013-03-28 23:37:00,44.0,29.8,30.15,NW,314,4.0,7.0,57,0.00,,OVC070,0.00,VWS V14.00,2013-03-29 03:37:00,
2013-03-28 23:43:00,43.9,29.7,30.15,NNW,341,5.0,8.0,57,0.00,,OVC070,0.00,VWS V14.00,2013-03-29 03:43:00,
2013-03-28 23:48:00,43.7,29.5,30.15,WNW,289,3.0,8.0,57,0.00,,OVC070,0.00,VWS V14.00,2013-03-29 03:48:00,
2013-03-28 23:53:00,43.5,29.7,30.15,WNW,298,2.0,8.0,58,0.00,,OVC070,0.00,VWS V14.00,2013-03-29 03:53:00,
2013-03-28 23:58:00,43.3,29.5,30.15,NW,304,1.0,8.0,58,0.00,,OVC070,0.00,VWS V14.00,2013-03-29 03:58:00,